KLM1ME EHAM-ENBR

Flight info

Callsign KLM1ME
Flight time 1h 39m
Altitude 34000
Route BERGI M90 LONAM DCT LARGA/N0439F350 DCT PENUN/N0441F360 DCT ALUVA
Aircraft B738/M-SDE2E3FGHIRWXY/LB1

Departure

Time 2026-05-03 20:27
Airport Amsterdam Airport Schiphol (EHAM)

Arrival

Time 2026-05-03 22:07
Airport Bergen Airport, Flesland (ENBR)
Time Latitude Longitude Altitude Speed Heading
2026-05-03 20:15 52.30709 4.76698 -2 ft 0 kts 148°
2026-05-03 20:15 52.30708 4.76699 -2 ft 0 kts 148°
2026-05-03 20:15 52.30707 4.76700 -2 ft 1 kts 149°
2026-05-03 20:16 52.30698 4.76713 -2 ft 1 kts 122°
2026-05-03 20:16 52.30711 4.76783 -2 ft 11 kts 88°
2026-05-03 20:16 52.30709 4.76799 -2 ft 0 kts 103°
2026-05-03 20:17 52.30706 4.76814 -2 ft 3 kts 115°
2026-05-03 20:17 52.30676 4.76852 -2 ft 8 kts 161°
2026-05-03 20:17 52.30597 4.76876 -2 ft 12 kts 163°
2026-05-03 20:17 52.30518 4.76956 -2 ft 13 kts 144°
2026-05-03 20:18 52.30500 4.77046 -2 ft 9 kts 73°
2026-05-03 20:18 52.30534 4.77142 -2 ft 11 kts 57°
2026-05-03 20:18 52.30575 4.77246 -2 ft 11 kts 58°
2026-05-03 20:18 52.30606 4.77338 -2 ft 0 kts 57°
2026-05-03 20:19 52.30610 4.77348 -2 ft 3 kts 57°
2026-05-03 20:19 52.30642 4.77437 -2 ft 8 kts 76°
2026-05-03 20:19 52.30639 4.77475 -2 ft 5 kts 114°
2026-05-03 20:19 52.30611 4.77509 -2 ft 9 kts 151°
2026-05-03 20:20 52.30539 4.77566 -2 ft 11 kts 152°
2026-05-03 20:20 52.30512 4.77589 -2 ft 0 kts 152°
2026-05-03 20:24 52.30504 4.77597 -2 ft 5 kts 151°
2026-05-03 20:25 52.30479 4.77620 -2 ft 2 kts 150°
2026-05-03 20:25 52.30464 4.77634 -2 ft 3 kts 150°
2026-05-03 20:25 52.30416 4.77639 -2 ft 3 kts 223°
2026-05-03 20:25 52.30410 4.77624 -2 ft 0 kts 234°
2026-05-03 20:26 52.30410 4.77623 -2 ft 0 kts 239°
2026-05-03 20:26 52.30409 4.77620 -2 ft 0 kts 238°
2026-05-03 20:27 52.30408 4.77619 -2 ft 2 kts 238°
2026-05-03 20:27 52.30300 4.77341 -5 ft 72 kts 238°
2026-05-03 20:27 52.29874 4.76234 -2 ft 155 kts 237°
2026-05-03 20:27 52.29269 4.74612 752 ft 170 kts 239°
2026-05-03 20:28 52.28701 4.72930 1997 ft 168 kts 243°
2026-05-03 20:28 52.28244 4.71204 3250 ft 160 kts 249°
2026-05-03 20:28 52.27920 4.69437 4247 ft 169 kts 259°
2026-05-03 20:28 52.27603 4.67538 5135 ft 178 kts 248°
2026-05-03 20:29 52.27293 4.65432 5599 ft 211 kts 271°
2026-05-03 20:29 52.27952 4.63200 6180 ft 235 kts 316°
2026-05-03 20:29 52.29488 4.62156 7001 ft 252 kts 355°
2026-05-03 20:29 52.31285 4.62807 7500 ft 285 kts 31°
2026-05-03 20:30 52.32886 4.64826 8424 ft 295 kts 34°
2026-05-03 20:30 52.34637 4.66617 9507 ft 299 kts 29°
2026-05-03 20:30 52.36444 4.68370 10442 ft 307 kts 30°
2026-05-03 20:30 52.38360 4.70235 10794 ft 336 kts 30°
2026-05-03 20:31 52.40440 4.72254 11374 ft 354 kts 30°
2026-05-03 20:31 52.42621 4.74365 11830 ft 376 kts 29°
2026-05-03 20:31 52.44973 4.76637 11943 ft 406 kts 29°
2026-05-03 20:31 52.47484 4.79058 11951 ft 433 kts 30°
2026-05-03 20:32 52.50043 4.81531 11915 ft 418 kts 30°
2026-05-03 20:32 52.52464 4.83875 11905 ft 400 kts 30°
2026-05-03 20:32 52.54700 4.86536 11885 ft 390 kts 46°
2026-05-03 20:32 52.56396 4.90142 11926 ft 420 kts 54°
2026-05-03 20:33 52.58162 4.93993 12908 ft 419 kts 50°
2026-05-03 20:33 52.60318 4.97110 14173 ft 410 kts 28°
2026-05-03 20:33 52.62922 4.98784 15415 ft 397 kts
2026-05-03 20:33 52.65623 4.99125 16632 ft 384 kts 352°
2026-05-03 20:34 52.68190 4.98257 17745 ft 373 kts 336°
2026-05-03 20:34 52.70482 4.96301 18463 ft 371 kts 320°
2026-05-03 20:34 52.72339 4.93386 19048 ft 370 kts 304°
2026-05-03 20:34 52.73668 4.89778 19666 ft 368 kts 291°
2026-05-03 20:35 52.74455 4.85772 20260 ft 368 kts 277°
2026-05-03 20:35 52.74651 4.81563 20879 ft 369 kts 269°
2026-05-03 20:35 52.74681 4.77318 21463 ft 372 kts 268°
2026-05-03 20:35 52.74681 4.73023 22023 ft 376 kts 268°
2026-05-03 20:36 52.74685 4.68690 22580 ft 380 kts 268°
2026-05-03 20:36 52.74701 4.64315 23131 ft 383 kts 268°
2026-05-03 20:36 52.74728 4.59929 23634 ft 386 kts 268°
2026-05-03 20:36 52.74745 4.57581 23864 ft 388 kts 268°
2026-05-03 20:37 52.74771 4.54044 24240 ft 389 kts 268°
2026-05-03 20:37 52.74795 4.50802 24593 ft 390 kts 268°
2026-05-03 20:37 52.74823 4.47268 24978 ft 391 kts 269°
2026-05-03 20:37 52.74940 4.44586 25241 ft 395 kts 277°
2026-05-03 20:38 52.75375 4.42028 25401 ft 405 kts 290°
2026-05-03 20:38 52.76429 4.39045 25718 ft 412 kts 303°
2026-05-03 20:38 52.77688 4.36765 26015 ft 419 kts 315°
2026-05-03 20:38 52.78877 4.35248 26236 ft 425 kts 323°
2026-05-03 20:39 52.80190 4.34040 26424 ft 430 kts 330°
2026-05-03 20:39 52.81498 4.33043 26677 ft 430 kts 331°
2026-05-03 20:39 52.83869 4.31685 27022 ft 437 kts 342°
2026-05-03 20:39 52.85094 4.31229 27101 ft 442 kts 345°
2026-05-03 20:40 52.86393 4.30855 27173 ft 447 kts 349°
2026-05-03 20:40 52.87787 4.30721 27123 ft 458 kts 359°
2026-05-03 20:40 52.89575 4.30976 26799 ft 471 kts 357°
2026-05-03 20:40 52.92083 4.30481 27009 ft 463 kts 341°
2026-05-03 20:41 52.94926 4.29062 27944 ft 448 kts 338°
2026-05-03 20:41 52.97436 4.27748 28421 ft 447 kts 339°
2026-05-03 20:41 52.99037 4.27008 28561 ft 451 kts 342°
2026-05-03 20:41 53.01097 4.26281 28743 ft 455 kts 343°
2026-05-03 20:42 53.03478 4.25329 28912 ft 457 kts 341°
2026-05-03 20:42 53.04332 4.24967 28969 ft 458 kts 341°
2026-05-03 20:42 53.06916 4.23890 29176 ft 462 kts 341°
2026-05-03 20:43 53.09599 4.22821 29407 ft 464 kts 342°
2026-05-03 20:43 53.12680 4.21644 29786 ft 465 kts 342°
2026-05-03 20:43 53.15215 4.20695 30119 ft 464 kts 342°
2026-05-03 20:43 53.18363 4.19523 30524 ft 462 kts 342°
2026-05-03 20:44 53.21489 4.18355 30898 ft 460 kts 342°
2026-05-03 20:44 53.24615 4.17179 31232 ft 460 kts 342°
2026-05-03 20:44 53.27733 4.15998 31556 ft 459 kts 343°
2026-05-03 20:44 53.30847 4.14814 31886 ft 458 kts 343°
2026-05-03 20:45 53.33909 4.13648 32241 ft 457 kts 343°
2026-05-03 20:45 53.37004 4.12465 32562 ft 456 kts 343°
2026-05-03 20:45 53.40095 4.11283 32884 ft 456 kts 343°
2026-05-03 20:45 53.43194 4.10095 33167 ft 456 kts 343°
2026-05-03 20:46 53.46285 4.08909 33480 ft 455 kts 343°
2026-05-03 20:46 53.49366 4.07728 33820 ft 454 kts 343°
2026-05-03 20:46 53.52448 4.06543 33914 ft 458 kts 343°
2026-05-03 20:47 53.58748 4.04115 33909 ft 470 kts 343°
2026-05-03 20:47 53.65186 4.01627 33919 ft 480 kts 343°
2026-05-03 20:48 53.71660 3.99115 33908 ft 489 kts 343°
2026-05-03 20:48 53.78335 3.96518 33911 ft 494 kts 343°
2026-05-03 20:49 53.85170 3.94658 33908 ft 503 kts 355°
2026-05-03 20:49 53.92114 3.95652 33903 ft 498 kts
2026-05-03 20:50 53.99034 3.97223 33919 ft 505 kts
2026-05-03 20:50 54.05986 3.98733 33913 ft 509 kts
2026-05-03 20:51 54.13013 4.00177 33898 ft 507 kts
2026-05-03 20:51 54.19960 4.01583 33910 ft 500 kts
2026-05-03 20:52 54.26836 4.02978 33906 ft 495 kts
2026-05-03 20:52 54.33658 4.04370 33914 ft 493 kts
2026-05-03 20:53 54.40457 4.05764 33918 ft 491 kts
2026-05-03 20:53 54.47232 4.07158 33907 ft 490 kts
2026-05-03 20:54 54.52857 4.08319 33909 ft 489 kts
2026-05-03 20:54 54.62977 4.10416 33906 ft 488 kts
2026-05-03 20:55 54.69683 4.11813 33903 ft 476 kts
2026-05-03 20:55 54.72931 4.12495 33888 ft 463 kts
2026-05-03 20:55 54.76113 4.13159 33904 ft 459 kts
2026-05-03 20:56 54.82452 4.14476 33920 ft 459 kts
2026-05-03 20:56 54.88815 4.15863 33917 ft 461 kts
2026-05-03 20:57 54.95150 4.17675 33929 ft 462 kts
2026-05-03 20:57 55.00083 4.19178 33917 ft 463 kts
2026-05-03 21:00 55.01394 4.19574 33916 ft 463 kts
2026-05-03 21:01 55.07747 4.21466 33912 ft 463 kts
2026-05-03 21:01 55.14113 4.23327 33908 ft 463 kts
2026-05-03 21:02 55.20475 4.25178 33928 ft 463 kts
2026-05-03 21:02 55.26833 4.27033 33914 ft 463 kts
2026-05-03 21:03 55.33185 4.28894 33917 ft 462 kts
2026-05-03 21:03 55.39529 4.30760 33917 ft 462 kts
2026-05-03 21:04 55.45860 4.32628 33948 ft 461 kts
2026-05-03 21:04 55.52185 4.34501 33932 ft 461 kts
2026-05-03 21:05 55.58508 4.36379 33925 ft 460 kts
2026-05-03 21:05 55.64825 4.38261 33933 ft 460 kts
2026-05-03 21:06 55.71138 4.40148 33960 ft 460 kts
2026-05-03 21:06 55.77452 4.42042 33948 ft 460 kts
2026-05-03 21:07 55.83764 4.43941 33948 ft 460 kts
2026-05-03 21:07 55.90041 4.45836 33948 ft 460 kts
2026-05-03 21:08 55.96214 4.47706 33952 ft 460 kts
2026-05-03 21:08 56.02508 4.49619 33952 ft 460 kts
2026-05-03 21:09 56.08818 4.51543 33951 ft 460 kts
2026-05-03 21:09 56.15140 4.53477 33951 ft 460 kts
2026-05-03 21:10 56.21450 4.55413 33950 ft 460 kts
2026-05-03 21:10 56.27764 4.57358 33960 ft 460 kts
2026-05-03 21:11 56.34058 4.59303 33949 ft 460 kts
2026-05-03 21:11 56.40404 4.61270 33944 ft 459 kts
2026-05-03 21:12 56.46665 4.63217 33951 ft 459 kts
2026-05-03 21:12 56.52965 4.65183 33958 ft 460 kts
2026-05-03 21:13 56.59281 4.67161 33951 ft 461 kts
2026-05-03 21:13 56.65603 4.69147 33949 ft 461 kts
2026-05-03 21:14 56.71930 4.71142 33949 ft 461 kts
2026-05-03 21:14 56.78252 4.73141 33949 ft 462 kts
2026-05-03 21:15 56.84597 4.75155 33945 ft 462 kts
2026-05-03 21:15 56.90937 4.77174 33941 ft 462 kts
2026-05-03 21:16 56.97272 4.79198 33935 ft 462 kts
2026-05-03 21:16 57.03586 4.81219 33965 ft 461 kts
2026-05-03 21:17 57.08839 4.82909 33952 ft 461 kts
2026-05-03 21:17 57.16215 4.84227 33949 ft 456 kts 358°
2026-05-03 21:18 57.22548 4.84445 33936 ft 455 kts 357°
2026-05-03 21:18 57.28874 4.84654 33964 ft 455 kts 357°
2026-05-03 21:19 57.35193 4.84950 33941 ft 455 kts 358°
2026-05-03 21:19 57.41521 4.85295 33935 ft 455 kts 358°
2026-05-03 21:20 57.47843 4.85652 33937 ft 454 kts 358°
2026-05-03 21:20 57.54166 4.86009 33933 ft 454 kts 358°
2026-05-03 21:21 57.60483 4.86364 33940 ft 454 kts 358°
2026-05-03 21:21 57.66799 4.86719 33929 ft 454 kts 358°
2026-05-03 21:22 57.73099 4.87075 33933 ft 453 kts 358°
2026-05-03 21:22 57.79402 4.87432 33927 ft 453 kts 358°
2026-05-03 21:23 57.85689 4.87790 33942 ft 452 kts 358°
2026-05-03 21:23 57.91865 4.88142 33929 ft 451 kts 358°
2026-05-03 21:24 57.98068 4.88497 33935 ft 450 kts 358°
2026-05-03 21:24 58.04321 4.88857 33931 ft 449 kts 358°
2026-05-03 21:25 58.10543 4.89217 33920 ft 443 kts 358°
2026-05-03 21:25 58.13581 4.89397 33686 ft 437 kts 358°
2026-05-03 21:25 58.16602 4.89575 33339 ft 430 kts 358°
2026-05-03 21:26 58.19577 4.89749 32965 ft 426 kts 357°
2026-05-03 21:26 58.22524 4.89920 32587 ft 422 kts 357°
2026-05-03 21:26 58.25443 4.90089 32204 ft 418 kts 357°
2026-05-03 21:26 58.28342 4.90257 31818 ft 415 kts 357°
2026-05-03 21:27 58.31212 4.90423 31469 ft 412 kts 357°
2026-05-03 21:27 58.34065 4.90589 31102 ft 409 kts 357°
2026-05-03 21:27 58.36890 4.90754 30742 ft 406 kts 357°
2026-05-03 21:27 58.39707 4.90919 30409 ft 404 kts 357°
2026-05-03 21:28 58.42473 4.91081 30064 ft 401 kts 357°
2026-05-03 21:28 58.45253 4.91244 29636 ft 399 kts 357°
2026-05-03 21:28 58.48014 4.91407 29257 ft 395 kts 357°
2026-05-03 21:28 58.50752 4.91570 28879 ft 391 kts 357°
2026-05-03 21:29 58.53457 4.91731 28491 ft 387 kts 357°
2026-05-03 21:29 58.56132 4.91890 28154 ft 383 kts 357°
2026-05-03 21:29 58.58789 4.92047 27792 ft 380 kts 356°
2026-05-03 21:29 58.61416 4.92203 27435 ft 377 kts 356°
2026-05-03 21:30 58.64028 4.92358 27074 ft 374 kts 356°
2026-05-03 21:30 58.66610 4.92511 26728 ft 371 kts 356°
2026-05-03 21:30 58.69187 4.92664 26379 ft 368 kts 356°
2026-05-03 21:30 58.71706 4.92814 26038 ft 365 kts 356°
2026-05-03 21:31 58.74240 4.92966 25697 ft 363 kts 356°
2026-05-03 21:31 58.76756 4.93116 25356 ft 361 kts 356°
2026-05-03 21:31 58.79258 4.93265 25026 ft 361 kts 356°
2026-05-03 21:31 58.81820 4.93410 24747 ft 379 kts 356°
2026-05-03 21:32 58.84508 4.93560 24774 ft 393 kts 357°
2026-05-03 21:32 58.87318 4.93718 24470 ft 415 kts 357°
2026-05-03 21:32 58.90240 4.93891 24218 ft 422 kts 357°
2026-05-03 21:32 58.93183 4.94077 23838 ft 422 kts 358°
2026-05-03 21:33 58.96104 4.94266 23395 ft 419 kts 357°
2026-05-03 21:33 58.99017 4.94452 22821 ft 418 kts 357°
2026-05-03 21:33 59.01904 4.94634 22276 ft 414 kts 357°
2026-05-03 21:33 59.04774 4.94812 21736 ft 411 kts 357°
2026-05-03 21:34 59.07620 4.94986 21213 ft 408 kts 357°
2026-05-03 21:34 59.10444 4.95159 20693 ft 404 kts 357°
2026-05-03 21:34 59.13239 4.95330 20184 ft 400 kts 357°
2026-05-03 21:34 59.16006 4.95499 19727 ft 396 kts 357°
2026-05-03 21:35 59.18723 4.95667 19454 ft 387 kts 357°
2026-05-03 21:35 59.21403 4.95831 19125 ft 382 kts 357°
2026-05-03 21:35 59.24044 4.95992 18838 ft 379 kts 356°
2026-05-03 21:35 59.26687 4.96149 18540 ft 384 kts 356°
2026-05-03 21:36 59.29438 4.96305 18216 ft 402 kts 356°
2026-05-03 21:36 59.32230 4.96475 17801 ft 400 kts 357°
2026-05-03 21:36 59.34996 4.96653 17389 ft 395 kts 357°
2026-05-03 21:36 59.37723 4.96829 16984 ft 389 kts 357°
2026-05-03 21:37 59.40417 4.96907 16595 ft 384 kts 353°
2026-05-03 21:37 59.43067 4.96565 16203 ft 380 kts 349°
2026-05-03 21:37 59.45688 4.96061 15819 ft 377 kts 349°
2026-05-03 21:37 59.48299 4.95543 15440 ft 376 kts 349°
2026-05-03 21:38 59.50900 4.95056 15081 ft 378 kts 349°
2026-05-03 21:38 59.53539 4.94593 14676 ft 383 kts 349°
2026-05-03 21:38 59.56185 4.94155 14261 ft 380 kts 350°
2026-05-03 21:38 59.58826 4.93729 13856 ft 380 kts 350°
2026-05-03 21:39 59.61457 4.93306 13415 ft 379 kts 350°
2026-05-03 21:39 59.64045 4.92572 12946 ft 372 kts 340°
2026-05-03 21:39 59.66497 4.91062 12543 ft 367 kts 336°
2026-05-03 21:39 59.68898 4.89432 12111 ft 364 kts 336°
2026-05-03 21:40 59.71250 4.87843 11728 ft 360 kts 336°
2026-05-03 21:40 59.73618 4.86278 11340 ft 357 kts 337°
2026-05-03 21:40 59.75970 4.84755 10967 ft 354 kts 338°
2026-05-03 21:40 59.78305 4.83259 10591 ft 351 kts 338°
2026-05-03 21:41 59.80465 4.81881 10265 ft 349 kts 338°
2026-05-03 21:41 59.82029 4.80887 10022 ft 347 kts 338°
2026-05-03 21:41 59.84320 4.79429 9638 ft 345 kts 338°
2026-05-03 21:41 59.86601 4.77977 9234 ft 343 kts 338°
2026-05-03 21:42 59.88702 4.76635 8862 ft 341 kts 338°
2026-05-03 21:42 59.90943 4.75276 8464 ft 342 kts 343°
2026-05-03 21:42 59.93364 4.75214 8047 ft 349 kts
2026-05-03 21:42 59.95588 4.77081 7669 ft 350 kts 31°
2026-05-03 21:43 59.97344 4.80316 7287 ft 349 kts 52°
2026-05-03 21:43 59.98334 4.84674 6897 ft 347 kts 80°
2026-05-03 21:43 59.98181 4.89406 6535 ft 342 kts 110°
2026-05-03 21:43 59.96938 4.93323 6150 ft 333 kts 140°
2026-05-03 21:44 59.94955 4.95468 5767 ft 322 kts 167°
2026-05-03 21:44 59.92864 4.96944 5407 ft 321 kts 149°
2026-05-03 21:44 59.91380 5.00109 5154 ft 317 kts 122°
2026-05-03 21:44 59.90460 5.03929 4887 ft 311 kts 105°
2026-05-03 21:45 59.90464 5.08202 4613 ft 304 kts 71°
2026-05-03 21:45 59.91558 5.11660 4351 ft 293 kts 39°
2026-05-03 21:45 59.93143 5.14028 4127 ft 285 kts 31°
2026-05-03 21:45 59.94851 5.15867 4006 ft 273 kts 20°
2026-05-03 21:46 59.96629 5.16732 3984 ft 256 kts
2026-05-03 21:46 59.98355 5.16713 3978 ft 241 kts 355°
2026-05-03 21:46 59.99987 5.16544 3977 ft 229 kts 354°
2026-05-03 21:46 60.01553 5.16379 3977 ft 225 kts 355°
2026-05-03 21:47 60.03099 5.16226 3988 ft 217 kts 355°
2026-05-03 21:47 60.04549 5.16094 3985 ft 200 kts 354°
2026-05-03 21:47 60.05876 5.15978 3974 ft 182 kts 355°
2026-05-03 21:47 60.07108 5.16083 3985 ft 179 kts 17°
2026-05-03 21:48 60.07968 5.17706 4029 ft 170 kts 60°
2026-05-03 21:48 60.08539 5.19794 3926 ft 170 kts 58°
2026-05-03 21:48 60.09113 5.21819 3816 ft 166 kts 58°
2026-05-03 21:48 60.09679 5.23821 3703 ft 165 kts 58°
2026-05-03 21:49 60.10260 5.25806 3597 ft 165 kts 51°
2026-05-03 21:49 60.11182 5.26913 3485 ft 155 kts
2026-05-03 21:49 60.12270 5.26954 3300 ft 157 kts 357°
2026-05-03 21:49 60.13346 5.26877 3095 ft 153 kts 356°
2026-05-03 21:50 60.14400 5.26755 2900 ft 152 kts 352°
2026-05-03 21:50 60.15443 5.26472 2696 ft 151 kts 349°
2026-05-03 21:50 60.16478 5.26135 2502 ft 151 kts 349°
2026-05-03 21:50 60.17503 5.25792 2302 ft 149 kts 349°
2026-05-03 21:51 60.18523 5.25450 2104 ft 148 kts 349°
2026-05-03 21:51 60.19540 5.25108 1910 ft 148 kts 349°
2026-05-03 21:51 60.20559 5.24767 1708 ft 149 kts 349°
2026-05-03 21:51 60.21612 5.24413 1504 ft 153 kts 349°
2026-05-03 21:52 60.22636 5.24070 1307 ft 147 kts 350°
2026-05-03 21:52 60.23645 5.23732 1108 ft 147 kts 349°
2026-05-03 21:52 60.24648 5.23396 928 ft 154 kts 349°
2026-05-03 21:52 60.25708 5.23031 708 ft 155 kts 347°
2026-05-03 21:53 60.26778 5.22670 484 ft 158 kts 350°
2026-05-03 21:53 60.27885 5.22300 294 ft 165 kts 350°
2026-05-03 21:53 60.28999 5.21947 186 ft 152 kts 349°
2026-05-03 21:53 60.29975 5.21671 333 ft 141 kts 351°
2026-05-03 21:54 60.30927 5.21489 1250 ft 128 kts 353°
2026-05-03 21:54 60.31727 5.21362 2092 ft 114 kts 354°
2026-05-03 21:54 60.32619 5.21081 2442 ft 143 kts 347°
2026-05-03 21:54 60.33553 5.20296 2998 ft 153 kts 318°
2026-05-03 21:55 60.34099 5.18163 2986 ft 191 kts 278°
2026-05-03 21:55 60.33883 5.15482 3007 ft 200 kts 253°
2026-05-03 21:55 60.33455 5.12827 3001 ft 197 kts 254°
2026-05-03 21:55 60.33040 5.10210 2993 ft 195 kts 251°
2026-05-03 21:56 60.32228 5.08035 2992 ft 200 kts 216°
2026-05-03 21:56 60.30894 5.07247 3007 ft 205 kts 183°
2026-05-03 21:56 60.29463 5.07295 3000 ft 207 kts 180°
2026-05-03 21:56 60.28025 5.07406 2995 ft 207 kts 179°
2026-05-03 21:57 60.26593 5.07522 2987 ft 206 kts 180°
2026-05-03 21:57 60.25162 5.07640 2992 ft 205 kts 179°
2026-05-03 21:57 60.23739 5.07760 2987 ft 205 kts 179°
2026-05-03 21:57 60.22329 5.07879 2981 ft 196 kts 180°
2026-05-03 21:58 60.21027 5.07997 2967 ft 180 kts 179°
2026-05-03 21:58 60.19819 5.08293 2968 ft 174 kts 160°
2026-05-03 21:58 60.18732 5.09318 3002 ft 174 kts 159°
2026-05-03 21:58 60.17596 5.10187 2999 ft 175 kts 162°
2026-05-03 21:59 60.16445 5.10950 3008 ft 173 kts 165°
2026-05-03 21:59 60.15254 5.11665 2983 ft 184 kts 166°
2026-05-03 21:59 60.13984 5.12376 2996 ft 194 kts 166°
2026-05-03 21:59 60.12665 5.13082 3004 ft 197 kts 167°
2026-05-03 22:00 60.11348 5.13771 2989 ft 195 kts 167°
2026-05-03 22:00 60.10038 5.14449 2983 ft 194 kts 166°
2026-05-03 22:00 60.08880 5.15742 2975 ft 193 kts 128°
2026-05-03 22:00 60.08427 5.18211 3001 ft 194 kts 87°
2026-05-03 22:01 60.08810 5.20767 3015 ft 193 kts 59°
2026-05-03 22:01 60.09460 5.23067 2994 ft 185 kts 58°
2026-05-03 22:01 60.10081 5.25269 2978 ft 178 kts 57°
2026-05-03 22:01 60.10924 5.26920 2976 ft 169 kts 14°
2026-05-03 22:02 60.12095 5.27038 2929 ft 170 kts 355°
2026-05-03 22:02 60.13257 5.26934 2775 ft 165 kts 356°
2026-05-03 22:02 60.14384 5.26785 2657 ft 160 kts 351°
2026-05-03 22:02 60.15478 5.26456 2557 ft 159 kts 349°
2026-05-03 22:03 60.16548 5.26111 2447 ft 151 kts 349°
2026-05-03 22:03 60.17564 5.25772 2279 ft 148 kts 349°
2026-05-03 22:03 60.18581 5.25430 2099 ft 148 kts 349°
2026-05-03 22:03 60.19594 5.25090 1898 ft 150 kts 349°
2026-05-03 22:04 60.20623 5.24745 1735 ft 146 kts 349°
2026-05-03 22:04 60.21630 5.24407 1508 ft 147 kts 349°
2026-05-03 22:04 60.22627 5.24073 1320 ft 147 kts 349°
2026-05-03 22:04 60.22805 5.24013 1275 ft 148 kts 350°
2026-05-03 22:05 60.23520 5.23773 1130 ft 148 kts 349°
2026-05-03 22:05 60.24548 5.23430 972 ft 146 kts 349°
2026-05-03 22:05 60.25505 5.23113 707 ft 141 kts 349°
2026-05-03 22:06 60.26463 5.22760 523 ft 140 kts 351°
2026-05-03 22:06 60.27431 5.22456 385 ft 145 kts 350°
2026-05-03 22:06 60.28433 5.22117 213 ft 146 kts 350°
2026-05-03 22:06 60.29366 5.21805 174 ft 122 kts 353°
2026-05-03 22:07 60.29927 5.21625 173 ft 39 kts 350°
2026-05-03 22:07 60.30042 5.21691 171 ft 4 kts 75°
2026-05-03 22:07 60.30046 5.21730 170 ft 5 kts 76°
2026-05-03 22:07 60.30053 5.21787 170 ft 1 kts 78°
2026-05-03 22:08 60.30054 5.21820 169 ft 4 kts 92°
2026-05-03 22:08 60.30041 5.21893 168 ft 8 kts 135°
2026-05-03 22:08 60.29976 5.21934 167 ft 12 kts 171°
2026-05-03 22:08 60.29879 5.21965 167 ft 17 kts 172°
2026-05-03 22:09 60.29752 5.22001 168 ft 18 kts 169°
2026-05-03 22:09 60.29614 5.22048 170 ft 23 kts 172°
2026-05-03 22:09 60.29469 5.22097 176 ft 17 kts 169°
2026-05-03 22:10 60.29309 5.22275 176 ft 18 kts 171°
2026-05-03 22:10 60.29176 5.22319 177 ft 19 kts 170°
2026-05-03 22:10 60.29079 5.22353 173 ft 17 kts 171°
2026-05-03 22:10 60.29033 5.22488 173 ft 15 kts 81°
2026-05-03 22:11 60.29040 5.22579 173 ft 2 kts 90°
2026-05-03 22:11 60.29036 5.22608 173 ft 2 kts 113°
2026-05-03 22:11 60.29027 5.22614 173 ft 3 kts 164°
2026-05-03 22:11 60.28993 5.22637 173 ft 3 kts 158°
2026-05-03 22:12 60.28982 5.22647 173 ft 0 kts 155°